Flag for Switzerland Weather past 2 weeks in Thônex, Geneva, Switzerland

Now
64 °F

Sprinkles. Broken clouds.


Feels Like: 64 °F
Forecast: 56 / 70 °F
Wind: 1 mph from North

Location: Geneva Cointrin Airport

Current Time: Sep 1, 2015 at 8:34:16 PM

Latest Report: Sep 1, 2015 at 7:50 PM


Visibility: N/A

Pressure: 30.07 "Hg

Humidity: 88%

Dew point: 61 °F

Location of ThônexLocation

Historic Weather in Thônex — Graph

°F

Thônex temperature yesterday

Maximum temperature yesterday: 88 °F (at 2:20 PM)
Minimum temperature yesterday: 61 °F (at 5:50 AM)
Average temperature yesterday: 75 °F

Past Weeks' High & Low Weather Summary

 TemperatureHumidityPressure
High90 °F (Aug 28, 4:50 PM)94% (Aug 18, 1:20 AM)30.24 "Hg (Aug 18, 1:20 AM)
Low50 °F (Aug 20, 4:20 AM)25% (Aug 31, 3:50 PM)29.74 "Hg (Aug 24, 4:20 AM)
Average68 °F63%30.05 "Hg
* Reported Aug 17 7:20 PM — Sep 1 7:20 PM, Thônex, Weather by CustomWeather, © 2015

Note: Actual official high and low records may vary slightly from our data, if they occured in-between our weather recording intervals... More about our weather records

Advertising

Thônex weather history for previous 24 hours

 ConditionsComfort  
Time TempWeatherWind HumidityBarometerVisibility
7:20 PM
Tue, Sep 1
66 °FSprinkles. Partly sunny.6 mph83%30.07 "HgN/A
6:50 PM66 °FScattered showers. Partly sunny.5 mph83%30.07 "HgN/A
6:20 PM66 °FPartly sunny.5 mph83%30.07 "HgN/A
5:50 PM68 °FSprinkles. Broken clouds.3 mph73%30.07 "HgN/A
5:20 PM66 °FBroken clouds.8 mph78%30.04 "HgN/A
4:50 PM66 °FBroken clouds.9 mph83%30.04 "HgN/A
4:20 PM66 °FSprinkles. Broken clouds.12 mph83%30.04 "HgN/A
3:50 PM66 °FSprinkles. Broken clouds.12 mph83%30.04 "HgN/A
3:20 PM66 °FSprinkles. Broken clouds.13 mph83%30.04 "HgN/A
2:50 PM66 °FSprinkles. Broken clouds.12 mph83%30.01 "HgN/A
2:20 PM66 °FSprinkles. Broken clouds.14 mph83%30.01 "Hg5 mi
1:50 PM70 °FSprinkles. Partly sunny.22 mph73%30.01 "Hg4 mi
1:20 PM73 °FScattered showers. Partly sunny.20 mph61%30.01 "HgN/A
12:50 PM72 °FScattered showers. Partly sunny.18 mph61%30.01 "HgN/A
12:20 PM72 °FScattered showers. Broken clouds.22 mph65%29.98 "HgN/A
11:50 AM72 °FScattered showers. Partly sunny.23 mph61%29.98 "HgN/A
11:20 AM72 °FPartly sunny.21 mph61%29.98 "HgN/A
10:50 AM73 °FBroken clouds.20 mph57%29.98 "HgN/A
10:20 AM73 °FBroken clouds.20 mph53%29.95 "HgN/A
9:50 AM73 °FBroken clouds.18 mph57%29.95 "HgN/A
9:20 AM72 °FBroken clouds.15 mph61%29.95 "HgN/A
8:50 AM73 °FScattered showers. Broken clouds.20 mph53%29.92 "HgN/A
8:20 AM73 °FScattered showers. Partly sunny.12 mph50%29.92 "HgN/A
7:50 AM73 °FSprinkles. Partly cloudy.13 mph47%29.92 "HgN/A
7:20 AM70 °FPartly cloudy.8 mph60%29.89 "HgN/A
6:50 AM68 °FPassing clouds.3 mph64%29.89 "HgN/A
5:20 AM72 °FPassing clouds.6 mph57%29.92 "HgN/A
4:50 AM72 °FClear.3 mph53%29.92 "Hg10 mi
4:20 AM72 °FClear.8 mph53%29.95 "Hg10 mi
3:50 AM73 °FPartly cloudy.15 mph50%29.95 "HgN/A
2:50 AM72 °FSprinkles. Partly cloudy.6 mph61%29.95 "HgN/A
2:20 AM70 °FPassing clouds.1 mph64%29.95 "HgN/A
1:50 AM72 °FPartly cloudy.6 mph61%29.95 "HgN/A
1:20 AM72 °FPassing clouds.7 mph61%29.95 "HgN/A
12:50 AM70 °FClear.3 mph64%29.95 "Hg10 mi
12:20 AM72 °FPassing clouds.5 mph57%29.95 "HgN/A
11:50 PM
Mon, Aug 31
72 °FClear.3 mph57%29.95 "Hg10 mi
11:20 PM73 °FClear.6 mph53%29.95 "Hg10 mi
10:50 PM77 °FClear.9 mph47%29.95 "Hg10 mi
10:20 PM77 °FClear.9 mph47%29.95 "Hg10 mi
9:50 PM79 °FClear.9 mph45%29.95 "Hg10 mi
9:20 PM79 °FClear.12 mph45%29.95 "Hg10 mi
8:50 PM79 °FScattered clouds.9 mph42%29.95 "HgN/A
8:20 PM81 °FScattered clouds.9 mph39%29.95 "HgN/A
Weather by CustomWeather, © 2015

See weather overviewHow to use our weather pages